星链-2146 (STARLINK-2146 )

导读 | 豆包AI

STARLINK-2146是美国SpaceX公司星链星座中的一颗卫星,于2021年3月4日发射升空。星链星座由SpaceX开发,旨在通过低地球轨道部署大量卫星,为全球提供高速低延迟宽带互联网服务,尤其聚焦改善偏远及基础设施不足地区的网络覆盖。该卫星的加入助力星链网络逐步扩容,推动实现全球无缝互联的目标,目前星链已覆盖多个国家,后续还将推进新一代卫星升级以提升服务能力。

基本信息
目录编号:
47735
目录名称:
STARLINK-2146
国际标识:
2021-017P
轨道中心:
EARTH
卫星名称:
星链-2146
卫星全名:
星链-2146 (STARLINK-2146 )
卫星状态:
已陨落 最后检测时间 2025-07-26
发射日期:
2021-03-04 UTC
国别 :
美国 (US)
星等 :
--
轨道信息
数据来源 国际轨道数据
星历时间: 2025-07-26T06:52:52+0800
轨道信息已过期278天
半长轴: 6539.748km
偏心率: 0.0010027
轨道倾角: 53.033°
近地点辐角 302.684°
升交点赤经 27.450°
平近点角 181.322°
近地点: 155.055km
远地点: 168.171km
周期: 87.721分钟
每日圈数: 16.41577
详细信息
固有亮度:
5
最大亮度:
2.5
卫星平台:
Starlink V1.0
覆盖范围:
全球
运营商:
太空探索技术公司
运营商所在国:
美国
制造商(研发单位):
太空探索技术公司
制造商所在国:
美国
使用方式:
暂无
卫星简介
星链(Starlink)计划是由太空探索技术公司(SpaceX)提出的一个巨型低轨卫星互联网星座项目,计划在2019年至2024年间在太空搭建由约1.2万颗卫星组成的“星链”网络,其中1584颗将部署在地球上空550千米处的近地轨道,并从2020年开始工作。该卫星仍在工作。